Location: Le Domaine
(47.0333°N, 76.5361°W)
Time: 13:29:31
(UTC-05:00)

S-56A Canister/Altair - Pass Details

Date: 28 November 2019
Orbit: 633 x 2499 km, 38.9° (Epoch: 10 December)

Event Time Altitude Azimuth Distance (km) Brightness Sun altitude
Rises 17:28:25 0° 269° (W) 5,636 13.5 -11.3°
Reaches altitude 10° 17:32:39 10° 264° (W) 4,375 12.8 -12.0°
Maximum altitude 17:43:10 47° 196° (SSW) 1,846 9.7 -13.7°
Drops below altitude 10° 17:50:13 10° 125° (SE) 2,968 10.2 -14.8°
Enters shadow 17:51:09 - 122° (ESE) 3,256 10.3 -15.0°
Sets 17:52:35 0° 119° (ESE) 3,720 - -15.2°
